{"data":{"norad_id":60296,"epoch":"2026-09-21T06:31:05.408832Z","epoch_age_seconds":118876,"freshness":"FRESH","line1":"1 60296U 24132U   26264.27159038 -.00000365  00000+0  88770-8 0  9992","line2":"2 60296  53.1602 222.6445 0001348  85.9026 274.2130 15.31693820121521","mean_motion":15.3169382,"eccentricity":0.0001348,"inclination_deg":53.1602,"raan_deg":222.6445,"arg_perigee_deg":85.9026,"mean_anomaly_deg":274.213,"bstar":8.877e-9,"rev_number":12152,"period_min":94.013567280698,"perigee_km":469.83518644372,"apogee_km":471.68164864829,"semimajor_km":6848.895417546,"source":"CELESTRAK","updated_at":"2026-09-22T09:00:49.195193Z"}}